Regional Weather Roundup
Issued by NWS

Home | Current Version | Previous Version | Graphics & Text | Print | Product List | Glossary On
Versions: 1 2 3 4 5 6 7 8 9 10 11 12 13 14 15 16 17 18 19 20 21 22 23 24 25 26 27
000
ASUS45 KBOU 030607
RWRCO

WEATHER ROUNDUP FOR COLORADO
NATIONAL WEATHER SERVICE DENVER/BOULDER CO
1100 PM MST FRI DEC 02 2016

NOTE: "FAIR" INDICATES FEW OR NO CLOUDS BELOW 12000 FEET WITH NO
SIGNIFICANT WEATHER AND/OR OBSTRUCTIONS TO VISIBILITY.

COZ001>005-013-030-031-030700-
...NORTHWEST COLORADO...

CITY           SKY/WX    TMP DP  RH WIND       PRES   REMARKS
CRAIG          CLOUDY    20  15  81 CALM      30.20S
HAYDEN         CLOUDY    18  10  73 S3        30.18F
MEEKER         FAIR      10   7  87 CALM      30.20F
MOUNT WERNER   NOT AVBL
STEAMBOAT SPGS CLOUDY    17  15  91 CALM      30.17F
WALDEN           N/A      9   3  78 CALM      30.11R
$$

COZ006>008-011-030700-
...WEST CENTRAL VALLEYS...

CITY           SKY/WX    TMP DP  RH WIND       PRES   REMARKS
GRAND JUNCTION FAIR      25  19  78 E5        30.20S WCI  19
MONTROSE       FAIR      24  21  88 E7        30.22R WCI  16
EAGLE          LGT SNOW  23  20  88 NW3       30.19R FOG
RIFLE          CLOUDY    25  18  74 W5        30.22R WCI  19
DELTA          NOT AVBL
NUCLA          CLOUDY    28  25  86 E3        30.21R
$$

COZ017>023-064>068-030700-
...SOUTHWEST COLORADO...

CITY           SKY/WX    TMP DP  RH WIND       PRES   REMARKS
DURANGO        FAIR      25  22  88 CALM      30.08S
CORTEZ         FAIR      22  21  96 CALM      30.12R
PAGOSA SPRINGS MOCLDY    25  25  99 CALM      30.10R
TELLURIDE      LGT SNOW  19  18  95 CALM      30.12R
WOLF CREEK PAS SNOW      14  12  92 S8G16     30.12R VSB 1/2 WCI   3
$$

COZ009-010-012-014-032>034-037-058>063-030700-
...CENTRAL COLORADO...

CITY           SKY/WX    TMP DP  RH WIND       PRES   REMARKS
ASPEN          LGT SNOW  20  18  92 NW3       30.12R FOG
BUENA VISTA    LGT SNOW  14  11  86 SW6       30.13S WCI   5
COPPER MTN     NOT AVBL
BERTHOUD PASS  FAIR       5  -6  61 W16       29.99S WCI -14
COTTONWOOD PAS FLURRIES  16  12  86 CALM      30.07S
GUNNISON       FLURRIES  15  11  83 NE6       30.13R WCI   6
KREMMLING      FLURRIES  21  18  86 N3        30.14S
LEADVILLE      FAIR       4   0  83 E5        30.06S WCI  -5
MONARCH PASS   CLOUDY    12  10  92 SW15      30.15S WCI  -4
SALIDA         CLOUDY    20  18  91 CALM      30.22S
SUNLIGHT       LGT SNOW N/A N/A N/A W6        30.12R
WILKERSON PASS CLOUDY    10   5  79 SW13      30.05S WCI  -5
$$

COZ069>075-030700-
...SAN LUIS VALLEY/SANGRE DE CRISTO MOUNTAINS...

CITY           SKY/WX    TMP DP  RH WIND       PRES   REMARKS
ALAMOSA        CLOUDY    20  18  92 CALM      30.12S
LA VETA PASS   LGT SNOW  19  16  86 NE7       30.08F WCI  10
SAGUACHE       CLOUDY    23  19  86 NW3       30.12S
$$

COZ035-036-038>040-030700-
...NORTHERN COLORADO FRONT RANGE...

CITY           SKY/WX    TMP DP  RH WIND       PRES   REMARKS
DENVER INTL AP FAIR      23  16  74 SW12      30.14R WCI  12
DMNS CITY PARK   N/A     24  20  83 SE5       30.14S WCI  18
AURORA         PTCLDY    22  17  79 S9        30.13F WCI  12
FRONT RANGE AP FAIR      25  19  80 S9G16     30.14S WCI  15
ERIE MUNI ARPT FAIR      19  17  95 CALM      30.14S
BOULDER MUN AP FAIR      27  18  69 SW5       30.13F WCI  21
CENTENNIAL     FAIR      23  17  78 S14       30.12F WCI  11
BROOMFIELD     MOCLDY    27  25  93 CALM      30.14S
FORT COLLINS   CLOUDY    27  23  86 CALM      30.15S
LONGMONT       FAIR      25  22  88 CALM      30.17R
$$

COZ041-046-047-076>085-087-088-030700-
...PIKES PEAK/PALMER DIVIDE AND SOUTHERN FOOTHILLS...

CITY           SKY/WX    TMP DP  RH WIND       PRES   REMARKS
COLO. SPRINGS  CLOUDY    25  18  74 SE8       30.17  WCI  16
A. F. ACADEMY  CLOUDY    21  18  87 CALM      30.14S
SCHRIEVER AFB  NOT AVBL
ELLICOTT       CLOUDY     1  32 100 S8        30.17S WCI -13
FALCON         CLOUDY    23  16  74 S9        30.15F WCI  13
FORT CARSON    CLOUDY    26  18  70 S9        30.16F WCI  17
LIMON          FAIR      14  13  95 CALM      30.18F
MONUMENT HILL  FAIR      18  12  79 S10       30.11F WCI   6
TRINIDAD       LGT SNOW  27  23  85 SE7       30.20S FOG     WCI  19
$$

COZ042>045-048>051-090-091-030700-
...NORTHEAST COLORADO...

CITY           SKY/WX    TMP DP  RH WIND       PRES   REMARKS
GREELEY ARPT   FAIR      23  18  81 CALM      30.16F
AKRON          CLOUDY    29  21  72 S9        30.18F WCI  20
BURLINGTON     CLOUDY    31  21  66 S7        30.24F WCI  24
WRAY           NOT AVBL
STERLING       CLOUDY    23  19  86 CALM      30.19F
HOLYOKE        MOCLDY    27  21  80 S7        30.23S WCI  19
FORT MORGAN    FAIR      23  18  81 CALM      30.19S
$$

COZ086-089-092>099-030700-
...SOUTHEAST COLORADO...

CITY           SKY/WX    TMP DP  RH WIND       PRES   REMARKS
PUEBLO         CLOUDY    30  22  72 CALM      30.21S
LA JUNTA       CLOUDY    32  19  58 SW3       30.24R
LAMAR          CLOUDY    34  17  50 E5        30.23F WCI  30
SPRINGFIELD      N/A     33  13  43 N3        30.22S
$$




USA.gov is the U.S. government's official web portal to all federal, state and local government web resources and services.